User: anonymous   Login
Location: Unspecified
(0.0000°N, 0.0000°E)
Time: 22:06:21
(UTC+00:00)
Language:

USA 184 - Orbit

View from above orbital plane
View from above orbital plane
View from above satellite
View from above satellite

Ground track
Ground track

The orbit data is extracted from the following two-line orbital elements,

1 29249U 06027A   19045.72447425 0.00000000  00000-0  00000-0 0    08
2 29249  62.8375 208.6196 6799414 271.1443  18.1494  2.00612000    01
Epoch (UTC): 14 February 2019 17:23:14
Eccentricity: 0.6799414
inclination: 62.8375°
perigee height: 2121 km
apogee height: 38234 km
right ascension of ascending node: 208.6196°
argument of perigee: 271.1443°
revolutions per day: 2.00612000
mean anomaly at epoch: 18.1494°
orbit number at epoch: 0

The dashed part of the orbit path shows where the satellite is in the earth's shadow,  

DLR